Weather History for Pampa / Mesa Vista, TX

Change the Weather History Date:

Sunday, December 29, 2013

  Actual Average (KBGD) Record (KBGD)
Temperature  
Mean Temperature 26 °F 37 °F  
Max Temperature 35 °F 49 °F 74 °F (1965)
Min Temperature 17 °F 25 °F -7 °F (1983)
Degree Days  
Heating Degree Days 39 28  
Month to date heating degree days 766  
Since 1 July heating degree days 1483  
Cooling Degree Days 0 0  
Month to date cooling degree days 0  
Year to date cooling degree days 1839  
Moisture  
Dew Point 15 °F    
Average Humidity 65    
Maximum Humidity 81    
Minimum Humidity 47    
Precipitation  
Precipitation 0.00 in 0.04 in 1.64 in (2006)
Month to date precipitation 0.70  
Year to date precipitation 21.65  
Snow  
Snow 0.00 in - - ()
Month to date snowfall  
Since 1 July snowfall  
Snow Depth -    
Sea Level Pressure  
Sea Level Pressure 30.21 in    
Wind  
Wind Speed 17 mph (North)    
Max Wind Speed 30 mph    
Max Gust Speed 40 mph    
Visibility 10 miles    
Events      
T = Trace of Precipitation, MM = Missing Value Source: NWS Daily Summary

Daily Weather History Graph

Daily Weather History Graph

Search for Another Location

Airport:

Trip Planner

Search our weather history database for the weather conditions in past years. The results will help you decide how hot, cold, wet, or windy it might be!

Date:

Astronomy

Dec. 29, 2013 Rise Set
Actual Time 7:53 AM CST 5:39 PM CST
Civil Twilight 7:25 AM CST 6:07 PM CST
Nautical Twilight 6:53 AM CST 6:39 PM CST
Astronomical Twilight 6:22 AM CST 7:10 PM CST
Moon 4:42 AM CST (12/29) 3:16 PM CST (12/29)
Length of Visible Light 10h 42m
Length of Day
9h 45m
Waning Crescent, 11% of the Moon is Illuminated
Dec 29
Waning Crescent
Jan 1
New
Jan 7
First Quarter
Jan 15
Full
Jan 23
Last Quarter

Hourly Weather History & Observations

Time (CST) Temp. Windchill Dew Point Humidity Pressure Visibility Wind Dir Wind Speed Gust Speed Precip Events Conditions
12:15 AM 33.8 °F 27.7 °F 28.4 °F 81% 29.92 in 10.0 mi North 6.9 mph - N/A   Clear
12:35 AM 35.6 °F 26.2 °F 30.2 °F 81% 29.94 in 10.0 mi NNE 15.0 mph - N/A   Clear
12:55 AM 35.6 °F 25.2 °F 30.2 °F 81% 29.96 in 10.0 mi NNE 18.4 mph 27.6 mph N/A   Clear
1:15 AM 35.6 °F 24.5 °F 30.2 °F 81% 29.97 in 10.0 mi NNE 20.7 mph 29.9 mph N/A   Clear
1:35 AM 35.6 °F 24.0 °F 30.2 °F 81% 30.00 in 10.0 mi NNE 23.0 mph 38.0 mph N/A   Scattered Clouds
1:55 AM 33.8 °F 20.8 °F 28.4 °F 81% 30.01 in 10.0 mi NNE 26.5 mph 36.8 mph N/A   Mostly Cloudy
2:15 AM 33.8 °F 22.5 °F 28.4 °F 81% 30.03 in 10.0 mi North 19.6 mph 28.8 mph N/A   Overcast
2:35 AM 32.0 °F 19.2 °F 26.6 °F 80% 30.05 in 10.0 mi North 23.0 mph 33.4 mph N/A   Overcast
2:55 AM 32.0 °F 18.6 °F 23.0 °F 69% 30.07 in 10.0 mi North 25.3 mph 35.7 mph N/A   Overcast
3:15 AM 32.0 °F 18.6 °F 23.0 °F 69% 30.10 in 10.0 mi North 25.3 mph 40.3 mph N/A   Overcast
3:35 AM 30.2 °F 16.2 °F 21.2 °F 69% 30.11 in 10.0 mi North 25.3 mph 33.4 mph N/A   Overcast
3:55 AM 28.4 °F 12.7 °F 19.4 °F 69% 30.12 in 10.0 mi NNE 29.9 mph 36.8 mph N/A   Overcast
4:15 AM 28.4 °F 14.4 °F 19.4 °F 69% 30.13 in 10.0 mi North 23.0 mph 28.8 mph N/A   Overcast
4:35 AM 26.6 °F 11.7 °F 17.6 °F 69% 30.14 in 10.0 mi North 24.2 mph 38.0 mph N/A   Overcast
4:55 AM 26.6 °F 12.4 °F 17.6 °F 69% 30.16 in 10.0 mi North 21.9 mph 36.8 mph N/A   Overcast
5:15 AM 24.8 °F 8.4 °F 15.8 °F 69% 30.17 in 10.0 mi North 27.6 mph 35.7 mph N/A   Overcast
5:35 AM 23.0 °F 7.2 °F 14.0 °F 68% 30.17 in 10.0 mi North 23.0 mph 32.2 mph N/A   Overcast
5:55 AM 23.0 °F 6.6 °F 14.0 °F 68% 30.19 in 10.0 mi North 25.3 mph 34.5 mph N/A   Overcast
6:15 AM 23.0 °F 6.3 °F 14.0 °F 68% 30.20 in 10.0 mi North 26.5 mph 33.4 mph N/A   Overcast
6:35 AM 23.0 °F 8.3 °F 14.0 °F 68% 30.20 in 10.0 mi North 19.6 mph 26.5 mph N/A   Overcast
6:55 AM 21.2 °F 4.5 °F 12.2 °F 68% 30.20 in 10.0 mi North 24.2 mph 31.1 mph N/A   Scattered Clouds
7:15 AM 21.2 °F 5.6 °F 12.2 °F 68% 30.22 in 10.0 mi North 20.7 mph 28.8 mph N/A   Clear
7:35 AM 21.2 °F 6.0 °F 12.2 °F 68% 30.23 in 10.0 mi North 19.6 mph 33.4 mph N/A   Clear
7:55 AM 21.2 °F 5.6 °F 10.4 °F 63% 30.23 in 10.0 mi North 20.7 mph 31.1 mph N/A   Clear
8:15 AM 21.2 °F 4.9 °F 10.4 °F 63% 30.25 in 10.0 mi North 23.0 mph 31.1 mph N/A   Clear
8:35 AM 21.2 °F 6.8 °F 10.4 °F 63% 30.26 in 10.0 mi North 17.3 mph 32.2 mph N/A   Clear
8:55 AM 21.2 °F 6.0 °F 10.4 °F 63% 30.27 in 10.0 mi North 19.6 mph 32.2 mph N/A   Clear
9:15 AM 21.2 °F 3.9 °F 10.4 °F 63% 30.28 in 10.0 mi North 26.5 mph 32.2 mph N/A   Clear
9:35 AM 21.2 °F 5.2 °F 10.4 °F 63% 30.28 in 10.0 mi North 21.9 mph 32.2 mph N/A   Clear
9:55 AM 23.0 °F 7.6 °F 10.4 °F 59% 30.29 in 10.0 mi North 21.9 mph 28.8 mph N/A   Clear
10:15 AM 23.0 °F 7.6 °F 10.4 °F 59% 30.30 in 10.0 mi North 21.9 mph 29.9 mph N/A   Clear
10:35 AM 23.0 °F 6.3 °F 12.2 °F 63% 30.30 in 10.0 mi North 26.5 mph 35.7 mph N/A   Clear
10:55 AM 23.0 °F 6.9 °F 12.2 °F 63% 30.31 in 10.0 mi NNE 24.2 mph 31.1 mph N/A   Clear
11:15 AM 24.8 °F 9.6 °F 12.2 °F 59% 30.31 in 10.0 mi North 23.0 mph 28.8 mph N/A   Clear
11:35 AM 24.8 °F 9.6 °F 12.2 °F 59% 30.30 in 10.0 mi North 23.0 mph 28.8 mph N/A   Clear
11:55 AM 24.8 °F 10.3 °F 12.2 °F 59% 30.30 in 10.0 mi North 20.7 mph 29.9 mph N/A   Clear
12:15 PM 26.6 °F 13.4 °F 14.0 °F 59% 30.29 in 10.0 mi NNE 18.4 mph 24.2 mph N/A   Clear
12:35 PM 26.6 °F 12.4 °F 14.0 °F 59% 30.29 in 10.0 mi North 21.9 mph 31.1 mph N/A   Scattered Clouds
12:55 PM 28.4 °F 15.1 °F 14.0 °F 55% 30.28 in 10.0 mi North 20.7 mph 27.6 mph N/A   Scattered Clouds
1:15 PM 28.4 °F 17.0 °F 12.2 °F 51% 30.28 in 10.0 mi North 15.0 mph 27.6 mph N/A   Scattered Clouds
1:35 PM 28.4 °F 17.0 °F 12.2 °F 51% 30.27 in 10.0 mi North 15.0 mph 25.3 mph N/A   Clear
1:55 PM 28.4 °F 15.8 °F 12.2 °F 51% 30.27 in 10.0 mi North 18.4 mph 24.2 mph N/A   Clear
2:15 PM 28.4 °F 16.6 °F 12.2 °F 51% 30.26 in 10.0 mi North 16.1 mph - N/A   Clear
2:35 PM 30.2 °F 18.1 °F 12.2 °F 47% 30.25 in 10.0 mi North 18.4 mph 23.0 mph N/A   Clear
2:55 PM 30.2 °F 19.3 °F 12.2 °F 47% 30.25 in 10.0 mi North 15.0 mph 20.7 mph N/A   Clear
3:15 PM 28.4 °F 16.6 °F 10.4 °F 47% 30.26 in 10.0 mi NNE 16.1 mph 20.7 mph N/A   Clear
3:35 PM 28.4 °F 18.5 °F 12.2 °F 51% 30.26 in 10.0 mi North 11.5 mph - N/A   Clear
3:55 PM 28.4 °F 17.5 °F 12.2 °F 51% 30.26 in 10.0 mi North 13.8 mph - N/A   Clear
4:15 PM 28.4 °F 18.0 °F 12.2 °F 51% 30.25 in 10.0 mi North 12.7 mph - N/A   Clear
4:35 PM 28.4 °F 19.1 °F 12.2 °F 51% 30.26 in 10.0 mi North 10.4 mph - N/A   Clear
4:55 PM 28.4 °F 18.5 °F 10.4 °F 47% 30.26 in 10.0 mi North 11.5 mph - N/A   Clear
5:15 PM 26.6 °F 17.5 °F 10.4 °F 51% 30.26 in 10.0 mi North 9.2 mph - N/A   Clear
5:35 PM 26.6 °F 20.0 °F 10.4 °F 51% 30.26 in 10.0 mi NNE 5.8 mph - N/A   Clear
5:55 PM 26.6 °F 21.2 °F 12.2 °F 55% 30.26 in 10.0 mi NNE 4.6 mph - N/A   Clear
6:15 PM 24.8 °F 19.1 °F 12.2 °F 59% 30.27 in 10.0 mi NNE 4.6 mph - N/A   Clear
6:35 PM 24.8 °F 19.1 °F 12.2 °F 59% 30.27 in 10.0 mi NNE 4.6 mph - N/A   Clear
6:55 PM 23.0 °F 17.0 °F 12.2 °F 63% 30.26 in 10.0 mi NNE 4.6 mph - N/A   Scattered Clouds
7:15 PM 23.0 °F 17.0 °F 12.2 °F 63% 30.26 in 10.0 mi NE 4.6 mph - N/A   Scattered Clouds
7:35 PM 23.0 °F - 12.2 °F 63% 30.26 in 10.0 mi Calm Calm - N/A   Scattered Clouds
7:55 PM 23.0 °F - 12.2 °F 63% 30.26 in 10.0 mi Calm Calm - N/A   Mostly Cloudy
8:15 PM 21.2 °F - 14.0 °F 74% 30.26 in 10.0 mi Calm Calm - N/A   Scattered Clouds
8:35 PM 21.2 °F - 14.0 °F 74% 30.26 in 10.0 mi Calm Calm - N/A   Clear
8:55 PM 21.2 °F - 14.0 °F 74% 30.26 in 10.0 mi Calm Calm - N/A   Clear
9:15 PM 17.6 °F 12.3 °F 12.2 °F 79% 30.25 in 10.0 mi WSW 3.5 mph - N/A   Clear
9:35 PM 17.6 °F 10.7 °F 12.2 °F 79% 30.24 in 10.0 mi SW 4.6 mph - N/A   Clear
9:55 PM 17.6 °F 8.2 °F 12.2 °F 79% 30.24 in 10.0 mi SW 6.9 mph - N/A   Clear
10:15 PM 17.6 °F 8.2 °F 12.2 °F 79% 30.23 in 10.0 mi SW 6.9 mph - N/A   Clear
10:35 PM 17.6 °F 8.2 °F 12.2 °F 79% 30.23 in 10.0 mi SW 6.9 mph - N/A   Clear
10:55 PM 17.6 °F 8.2 °F 12.2 °F 79% 30.22 in 10.0 mi SSW 6.9 mph - N/A   Clear
11:15 PM 17.6 °F 9.3 °F 12.2 °F 79% 30.22 in 10.0 mi SW 5.8 mph - N/A   Clear
11:35 PM 17.6 °F 8.2 °F 12.2 °F 79% 30.20 in 10.0 mi SSW 6.9 mph - N/A   Clear
11:55 PM 17.6 °F 8.2 °F 12.2 °F 79% 30.20 in 10.0 mi SW 6.9 mph - N/A   Clear